Location: Buckeye Ditch
(40.9104°N, 122.9517°W)
Time: 21:08:45
(UTC+00:00)

YAOGAN 11 - Visible Passes

Search period start: 18 July 2024 00:00
Search period end: 28 July 2024 00:00
Orbit: 607 x 657 km, 98.4° (Epoch: 18 July)

Date Brightness Start Highest point End Pass type
(mag) Time Alt. Az. Time Alt. Az. Time Alt. Az.
20 Jul 7.6 11:52:21 10° E 11:54:02 12° ENE 11:55:44 10° NE visible
21 Jul 7.2 12:11:35 10° ESE 12:14:40 19° ENE 12:17:47 10° NNE visible
25 Jul 7.4 11:59:39 10° E 12:01:59 14° ENE 12:04:20 10° NNE visible
26 Jul 7.1 12:19:12 10° ESE 12:22:36 22° ENE 12:26:04 10° NNE visible
